Regional Weather Roundup
Issued by NWS

Home | Current Version | Previous Version | Graphics & Text | Print | Product List | Glossary On
Versions: 1 2 3 4 5 6 7 8 9 10 11 12 13 14 15 16 17 18 19 20 21 22 23 24 25 26 27 28 29 30 31 32 33 34 35 36 37 38 39 40 41 42 43 44 45 46 47 48 49 50
000
ASUS43 KFSD 280802
RWRSD

WEATHER ROUNDUP FOR SOUTH DAKOTA
NATIONAL WEATHER SERVICE SIOUX FALLS SD
200 AM CST SUN DEC 28 2014

NOTE: "FAIR" INDICATES FEW OR NO CLOUDS BELOW 12,000 FEET WITH NO
SIGNIFICANT WEATHER AND/OR OBSTRUCTIONS TO VISIBILITY.


SDZ001>005-009-010-012>017-280900-
NORTHWEST AND NORTH CENTRAL SOUTH DAKOTA

CITY           SKY/WX    TMP DP  RH WIND       PRES   REMARKS
BUFFALO          N/A     21  14  74 W8        29.86F WCI  11
FAITH            N/A     22  14  71 SW3       29.97F
MOBRIDGE       MOCLDY    14  11  87 CALM      30.00S
$$

SDZ012>016-024>037-041>051-057-063-072>074-280900-
SOUTHWEST AND SOUTH CENTRAL SOUTH DAKOTA

CITY           SKY/WX    TMP DP  RH WIND       PRES   REMARKS
RAPID CTY ARPT CLEAR     12   4  70 NW8       29.96F WCI   0
PIERRE         CLEAR     14  11  87 SW7       30.04S WCI   4
CUSTER         CLEAR     11   2  67 W7        29.87F WCI   0
ELLSWORTH AFB  CLEAR     14   6  71 W8        29.95F WCI   3
PHILIP         CLOUDY    12   7  80 CALM      30.03F
PINE RIDGE     PTCLDY    13   4  67 W3        30.01F
WINNER         FAIR      18   8  65 SW6       30.05S WCI  10
$$

SDZ004>011-016>023-039-040-280900-
NORTHEAST SOUTH DAKOTA

CITY           SKY/WX    TMP DP  RH WIND       PRES   REMARKS
ABERDEEN       PTCLDY     9   6  88 SE3       30.06S
WATERTOWN      MOCLDY     9   6  88 CALM      30.02S
SISSETON         N/A     19  15  84 NW13      30.04R WCI   6
$$

SDZ017-020-022-023-036>040-048>070-280900-
SOUTHEAST SOUTH DAKOTA

CITY           SKY/WX    TMP DP  RH WIND       PRES   REMARKS
SIOUX FALLS    PTCLDY     3   1  91 W3        30.08S
HURON          CLEAR      4   0  83 W3        30.06F
MITCHELL       PTCLDY     5   3  91 CALM      30.08S
YANKTON        PTCLDY     9   7  92 CALM      30.10F
$$

ABBREVIATIONS USED IN REMARKS
   TC - TEMPERATURE IN CELSIUS
  WCI - WIND CHILL INDEX
   HX - HEAT INDEX
  VSB - VISIBILITY



USA.gov is the U.S. government's official web portal to all federal, state and local government web resources and services.